星链-11384 (STARLINK-11384)

导读

STARLINK-1134是美国SpaceX星链星座的一颗卫星,于2024年11月25日发射入轨。星链项目旨在构建全球卫星互联网星座,该卫星加入后进一步扩充了星链低轨卫星规模,持续为全球多地用户提供宽带互联网接入服务,助力星链星座覆盖能力与服务性能提升。

基本信息
目录编号:
62088
目录名称:
STARLINK-11384
国际标识:
2024-220A
轨道中心:
EARTH
卫星名称:
星链-11384
卫星全名:
星链-11384 (STARLINK-11384)
卫星状态:
在轨 (已飞行562 天)
发射日期:
2024-11-25 UTC
国别 :
美国 (US)
星等 :
--
轨道信息
数据来源 国际轨道数据
星历时间: 2026-06-10T04:26:14+0800
14小时前
查看轨道信息
半长轴: 6734.405km
偏心率: 0.0001804
轨道倾角: 43.002°
近地点辐角 276.741°
升交点赤经 207.928°
平近点角 83.325°
近地点: 355.053km
远地点: 357.483km
周期: 91.666分钟
每日圈数: 15.709196
详细信息
固有亮度:
5
最大亮度:
2.5
卫星平台:
Starlink V1.0
覆盖范围:
全球
运营商:
太空探索技术公司
运营商所在国:
美国
制造商(研发单位):
太空探索技术公司
制造商所在国:
美国
使用方式:
暂无
卫星简介
Starlink 计划是 SpaceX 推出的全球卫星互联网项目,通过发射低轨道卫星,为全球尤其是偏远地区提供高速、低延迟的互联网服务。自 2019 年起,Starlink 已部署数千颗卫星,旨在缩小全球数字鸿沟,推动互联网普及。该项目还为军事、航空等行业提供通信支持,带来广泛经济效益。
2D轨道图
3D轨道图
轨道高度分析图
轨道倾角分析图
轨道综合分析图
查看轨道综合分析图